Weather reports worldwide

Advertisment
Warburg, Germany (10435): temperature & dewpoint: 16.09.2019 23:00:00 - 22.09.2019 23:00:00 (CEST)Warburg, Germany (10435): temperature 5cm & temperature -5cm: 16.09.2019 23:00:00 - 22.09.2019 23:00:00 (CEST)Warburg, Germany (10435): temperature -20cm & temperature -100cm: 16.09.2019 23:00:00 - 22.09.2019 23:00:00 (CEST)Warburg, Germany (10435): wind speed & gusts: 16.09.2019 23:00:00 - 22.09.2019 23:00:00 (CEST)Warburg, Germany (10435): wind direction: 16.09.2019 23:00:00 - 22.09.2019 23:00:00 (CEST)Warburg, Germany (10435): reduced air pressure: 16.09.2019 23:00:00 - 22.09.2019 23:00:00 (CEST)Warburg, Germany (10435): visibility: 16.09.2019 23:00:00 - 22.09.2019 23:00:00 (CEST)Warburg, Germany (10435): sunshine duration: 16.09.2019 23:00:00 - 22.09.2019 23:00:00 (CEST)Warburg, Germany (10435): precipitation: 16.09.2019 23:00:00 - 22.09.2019 23:00:00 (CEST)
Date & Time tt [°C] td [°C] tt 5cm [°C] tt -5cm [°C] tt -20cm [°C] tt -100cm [°C] ff [km/h] ff [kn] fx [km/h] fx [kn] dd ppp [hPa] vv [km] sd [min] rr [mm]
22.09.2019 23:00:00 15,7 10,3 14,0 16,9 17,0 13,8 5 3 8 5 WSW 1009,5 60 0 0,0
22.09.2019 22:00:00 16,4 9,3 14,2 17,5 17,3 13,8 4 2 11 6 ESE 1009,6 43 0 0,0
22.09.2019 21:00:00 18,2 8,5 15,0 18,3 17,7 13,8 4 2 8 4 ESE 1009,1 66 0 0,0
22.09.2019 20:00:00 20,1 7,6 15,5 19,3 17,9 13,8 4 2 8 4 SE 1009,0 62 0 0,0
22.09.2019 19:00:00 21,6 7,3 17,3 21,0 18,0 13,8 6 3 11 6 ESE 1008,7 69 33 0,0
22.09.2019 18:00:00 24,1 7,7 23,2 22,9 17,6 13,8 9 5 18 10 SE 1008,5 54 60 0,0
22.09.2019 17:00:00 24,3 7,4 26,6 23,3 17,0 13,8 8 5 19 10 SE 1008,8 75 60 0,0
22.09.2019 16:00:00 23,7 7,6 27,1 22,8 16,3 13,8 7 4 16 9 SSE 1009,2 45 60 0,0
22.09.2019 15:00:00 22,9 7,6 25,4 22,0 15,4 13,8 10 6 20 11 SSE 1009,8 62 60 0,0
22.09.2019 14:00:00 23,1 7,4 27,0 21,2 14,4 13,8 11 6 25 13 SSE 1010,0 54 60 0,0
22.09.2019 13:00:00 22,5 7,5 26,5 19,0 13,4 13,8 12 6 34 18 SSE 1011,1 75 60 0,0
22.09.2019 12:00:00 20,5 7,0 24,0 16,6 12,6 13,8 13 7 28 15 SSE 1011,6 50 60 0,0
22.09.2019 11:00:00 16,6 7,4 20,3 13,8 12,0 13,8 9 5 13 7 SSE 1012,8 43 60 0,0
22.09.2019 10:00:00 12,9 6,5 17,6 11,2 11,8 13,8 4 2 8 4 N 1013,5 45 60 0,0
22.09.2019 09:00:00 8,9 5,4 10,2 9,4 11,9 13,8 2 1 5 3 ENE 1014,2 38 60 0,0
22.09.2019 08:00:00 6,1 4,7 5,3 8,9 12,2 13,8 2 1 4 2 SSW 1014,8 37 28 0,0
22.09.2019 07:00:00 5,1 4,6 1,6 9,2 12,5 13,8 5 3 6 3 W 1014,9 34 0 0,0
22.09.2019 06:00:00 5,6 4,7 1,8 9,6 12,9 13,8 2 1 6 4 NW 1014,9 44 0 0,0
22.09.2019 05:00:00 6,5 5,4 2,7 10,1 13,2 13,8 4 2 7 4 W 1015,2 37 0 0,0
22.09.2019 04:00:00 6,6 5,4 2,7 10,6 13,6 13,9 0 0 7 4 N 1015,5 36 0 0,0
22.09.2019 03:00:00 7,4 5,8 3,2 11,2 14,0 13,9 3 2 6 3 SE 1015,8 42 0 0,0
22.09.2019 02:00:00 8,7 6,2 4,0 11,8 14,5 13,9 4 2 8 5 SSE 1016,1 52 0 0,0
22.09.2019 01:00:00 8,8 6,0 5,3 12,5 14,9 13,9 6 4 8 4 SE 1016,8 55 0 0,0
22.09.2019 00:00:00 10,7 6,6 5,3 13,3 15,4 13,9 5 3 8 4 S 1017,0 61 0 0,0
21.09.2019 23:00:00 12,0 6,3 5,6 14,2 15,8 13,9 4 2 8 4 SE 1017,2 60 0 0,0
21.09.2019 22:00:00 14,5 5,7 8,2 15,3 16,3 13,9 5 3 9 5 ESE 1017,1 72 0 0,0
21.09.2019 21:00:00 16,1 5,4 10,3 16,5 16,7 13,9 7 4 11 6 E 1017,1 63 0 0,0
21.09.2019 20:00:00 17,4 5,3 12,4 18,0 17,1 13,9 9 5 13 7 E 1017,3 59 16 0,0
21.09.2019 19:00:00 19,7 5,7 16,3 19,9 17,1 13,9 10 5 18 10 E 1017,4 57 60 0,0
21.09.2019 18:00:00 21,8 5,1 20,7 22,0 16,8 13,9 10 5 21 12 E 1017,7 65 60 0,0
21.09.2019 17:00:00 22,2 4,6 24,2 22,7 16,2 13,9 14 8 23 12 ESE 1018,2 51 60 0,0
21.09.2019 16:00:00 22,1 4,8 25,7 22,4 15,3 13,9 11 6 24 13 ESE 1018,8 70 60 0,0
21.09.2019 15:00:00 21,0 3,4 25,2 21,4 14,3 14,0 10 5 26 14 SSE 1019,9 59 60 0,0
21.09.2019 14:00:00 20,6 3,9 25,0 19,8 13,2 14,0 13 7 24 13 SSE 1020,7 55 60 0,0
21.09.2019 13:00:00 19,4 3,5 23,4 17,8 12,2 14,0 16 9 26 14 SSE 1021,6 52 60 0,0
21.09.2019 12:00:00 16,8 4,6 21,3 15,1 11,4 14,0 10 5 14 8 E 1022,6 52 60 0,0
21.09.2019 11:00:00 13,3 4,6 18,2 12,0 10,8 14,0 5 3 13 7 SE 1023,5 54 60 0,0
21.09.2019 10:00:00 9,1 3,7 12,4 9,5 10,6 14,0 6 3 9 5 SE 1024,2 43 60 0,0
21.09.2019 09:00:00 5,5 2,9 7,0 7,6 10,7 14,0 3 2 6 3 SSW 1024,8 46 60 0,0
21.09.2019 08:00:00 2,7 2,0 2,4 7,1 11,0 14,0 3 1 7 4 WSW 1025,1 26 28 0,0
21.09.2019 07:00:00 2,4 2,3 -0,6 7,4 11,4 14,0 3 1 5 3 E 1025,1 29 0 0,0
21.09.2019 06:00:00 2,0 1,7 -0,5 7,9 11,7 14,0 4 2 9 5 NW 1025,4 24 0 0,0
21.09.2019 05:00:00 2,9 2,6 -0,5 8,4 12,1 14,0 3 2 6 3 W 1025,5 24 0 0,0
21.09.2019 04:00:00 3,0 2,4 0,0 8,9 12,5 14,0 0 0 6 4 N 1025,7 35 0 0,0
21.09.2019 03:00:00 3,7 2,9 0,8 9,5 13,0 14,1 5 3 8 4 NNW 1026,1 37 0 0,0
21.09.2019 02:00:00 4,6 3,6 1,7 10,2 13,4 14,1 5 3 9 5 N 1026,3 50 0 0,0
21.09.2019 01:00:00 5,1 3,8 2,4 10,9 13,9 14,1 5 3 10 5 W 1026,5 46 0 0,0
21.09.2019 00:00:00 6,3 4,2 2,7 11,7 14,3 14,1 3 1 9 5 W 1026,8 48 0 0,0
20.09.2019 23:00:00 6,9 4,3 4,4 12,6 14,8 14,1 5 3 11 6 WNW 1027,0 51 0 0,0
20.09.2019 22:00:00 8,9 4,6 5,6 13,6 15,3 14,1 5 3 8 4 WNW 1027,0 55 0 0,0
20.09.2019 21:00:00 9,7 4,3 5,8 14,9 15,8 14,1 7 4 9 5 NW 1027,1 57 0 0,0
20.09.2019 20:00:00 13,2 3,0 7,5 16,5 16,2 14,1 5 3 9 5 ENE 1026,9 75 22 0,0
20.09.2019 19:00:00 15,2 3,4 12,8 18,3 16,3 14,1 8 4 10 5 NE 1026,7 62 60 0,0
20.09.2019 18:00:00 16,6 2,3 15,6 20,7 16,0 14,2 6 3 13 7 NE 1027,0 68 60 0,0
20.09.2019 17:00:00 17,0 1,3 19,7 21,5 15,4 14,2 8 4 19 10 E 1027,5 69 60 0,0
20.09.2019 16:00:00 16,8 -3,9 20,6 21,4 14,6 14,2 6 4 14 8 NE 1028,1 60 60 0,0
20.09.2019 15:00:00 15,9 -4,7 20,4 20,5 13,6 14,2 8 4 16 9 E 1028,8 71 60 0,0
20.09.2019 14:00:00 14,9 -0,6 19,6 18,8 12,5 14,2 8 4 13 7 NNE 1029,2 75 60 0,0
20.09.2019 13:00:00 14,0 4,2 19,7 16,4 11,5 14,2 6 4 12 6 NNE 1029,8 44 60 0,0
20.09.2019 12:00:00 12,5 4,2 16,9 13,6 10,7 14,2 6 3 10 5 E 1030,4 56 60 0,0
20.09.2019 11:00:00 9,9 4,0 14,6 10,5 10,3 14,2 4 2 6 3 SW 1031,0 44 60 0,0
20.09.2019 10:00:00 6,3 3,4 8,2 8,3 10,1 14,2 3 2 5 3 S 1031,6 52 60 0,0
20.09.2019 09:00:00 3,8 2,3 5,6 6,8 10,3 14,2 0 0 3 2 N 1031,5 32 40 0,0
20.09.2019 08:00:00 1,8 1,5 0,3 6,4 10,5 14,3 3 2 4 2 N 1031,3 9 0 0,0
20.09.2019 07:00:00 1,2 1,1 -1,3 6,7 10,9 14,3 3 2 6 3 S 1031,2 16 0 0,0
20.09.2019 06:00:00 1,4 1,1 -1,0 7,1 11,2 14,3 3 2 5 3 WSW 1031,3 8 0 0,0
20.09.2019 05:00:00 2,3 2,0 -0,1 7,6 11,6 14,3 3 1 5 3 SE 1031,4 20 0 0,0
20.09.2019 04:00:00 2,4 2,1 0,2 8,0 11,9 14,3 3 2 8 5 WNW 1031,3 25 0 0,0
20.09.2019 03:00:00 2,6 2,1 0,0 8,6 12,3 14,3 4 2 8 4 WNW 1031,5 28 0 0,0
20.09.2019 02:00:00 3,5 3,1 0,9 9,1 12,7 14,3 5 3 9 5 WNW 1031,8 36 0 0,0
20.09.2019 01:00:00 3,3 2,4 1,4 9,7 13,2 14,3 7 4 9 5 NW 1031,8 33 0 0,0
20.09.2019 00:00:00 4,7 3,5 1,5 10,5 13,6 14,3 3 2 5 3 WNW 1031,9 34 0 0,0
19.09.2019 23:00:00 6,1 4,5 2,7 11,3 14,1 14,4 4 2 11 6 SSW 1031,5 41 0 0,0
19.09.2019 22:00:00 6,7 4,2 4,9 12,2 14,6 14,4 9 5 12 7 WNW 1031,1 50 0 0,0
19.09.2019 21:00:00 9,1 4,0 5,1 13,3 15,0 14,4 9 5 10 6 WNW 1030,7 53 0 0,0
19.09.2019 20:00:00 10,1 3,3 5,4 14,8 15,3 14,4 6 3 10 5 NW 1030,2 69 7 0,0
19.09.2019 19:00:00 13,1 2,7 11,1 16,3 15,5 14,4 7 4 12 7 N 1029,6 35 46 0,0
19.09.2019 18:00:00 13,9 2,5 13,5 17,6 15,5 14,4 9 5 17 9 NNW 1029,6 71 31 0,0
19.09.2019 17:00:00 14,3 2,8 15,9 18,8 15,1 14,4 6 3 19 10 NW 1029,6 52 17 0,0
19.09.2019 16:00:00 15,6 3,1 20,8 19,4 14,5 14,4 9 5 22 12 WNW 1029,6 60 53 0,0
19.09.2019 15:00:00 14,3 3,0 18,6 18,4 13,8 14,4 16 9 24 13 NNW 1030,3 42 36 0,0
19.09.2019 14:00:00 13,7 3,6 16,7 17,0 13,1 14,4 13 7 24 13 NNW 1030,3 45 18 0,0
19.09.2019 13:00:00 13,1 2,2 16,0 16,2 12,4 14,5 11 6 23 13 NW 1030,6 43 40 0,0
19.09.2019 12:00:00 12,5 2,1 14,5 14,5 11,7 14,5 11 6 26 14 NNW 1030,6 52 43 0,0
19.09.2019 11:00:00 12,2 4,2 17,2 12,2 11,2 14,5 13 7 21 12 NW 1030,5 52 60 0,0
19.09.2019 10:00:00 9,8 6,0 14,2 9,9 11,0 14,5 10 5 17 9 WNW 1030,5 36 60 0,0
19.09.2019 09:00:00 7,4 5,0 9,1 7,9 11,1 14,5 10 5 17 9 W 1030,2 35 54 0,0
19.09.2019 08:00:00 3,9 3,5 3,2 7,4 11,4 14,5 9 5 13 7 WNW 1029,9 23 9 0,0
19.09.2019 07:00:00 3,3 2,6 0,5 7,8 11,7 14,5 5 3 13 7 W 1029,6 15 0 0,0
19.09.2019 06:00:00 5,0 4,2 2,6 8,2 12,0 14,5 11 6 13 7 WNW 1029,3 38 0 0,0
19.09.2019 05:00:00 5,2 4,0 3,1 8,7 12,3 14,5 10 5 14 8 WNW 1029,0 36 0 0,0
19.09.2019 04:00:00 5,1 4,0 3,7 9,1 12,7 14,5 12 6 16 9 WNW 1028,9 39 0 0,0
19.09.2019 03:00:00 6,4 4,6 4,3 9,6 13,1 14,6 11 6 13 7 WNW 1028,7 49 0 0,0
19.09.2019 02:00:00 6,1 5,0 3,4 10,1 13,5 14,6 8 4 10 6 W 1028,9 50 0 0,0
19.09.2019 01:00:00 6,8 5,4 4,1 10,8 13,9 14,6 8 4 10 6 W 1028,4 47 0 0,0
19.09.2019 00:00:00 7,7 5,6 5,0 11,5 14,3 14,6 8 4 12 7 W 1028,2 51 0 0,0
18.09.2019 23:00:00 7,8 6,4 4,4 12,4 14,7 14,6 6 3 11 6 WNW 1027,9 44 0 0,0
18.09.2019 22:00:00 8,9 6,6 6,9 13,4 15,1 14,6 9 5 12 6 WNW 1027,3 49 0 0,0
18.09.2019 21:00:00 10,2 6,9 8,9 14,4 15,4 14,6 11 6 31 17 WNW 1026,9 55 0 0,0
18.09.2019 20:00:00 11,9 5,9 10,9 15,3 15,7 14,6 11 6 28 15 WNW 1025,9 52 7 0,0
18.09.2019 19:00:00 12,8 5,2 11,6 16,7 15,8 14,7 15 8 25 14 WNW 1025,6 54 24 0,0
18.09.2019 18:00:00 13,7 4,9 14,0 18,3 15,7 14,7 21 11 32 17 WNW 1025,4 49 30 0,0
18.09.2019 17:00:00 14,9 4,2 17,0 18,5 15,4 14,7 17 9 32 17 WNW 1025,3 53 34 0,0
18.09.2019 16:00:00 15,5 4,9 19,3 18,6 15,0 14,7 19 11 32 17 WNW 1025,5 41 15 0,0
18.09.2019 15:00:00 15,9 3,8 21,8 18,6 14,4 14,7 19 11 32 18 WNW 1025,5 43 35 0,0
18.09.2019 14:00:00 13,9 4,2 16,1 18,2 13,7 14,7 19 10 31 17 NW 1026,1 42 32 0,0
18.09.2019 13:00:00 13,7 4,8 15,8 17,1 13,0 14,7 19 11 38 21 NW 1026,4 48 47 0,0
18.09.2019 12:00:00 12,7 5,0 15,4 15,0 12,3 14,7 18 10 27 15 NW 1026,5 34 52 0,0
18.09.2019 11:00:00 12,1 5,0 16,9 12,9 11,8 14,7 13 7 19 11 WNW 1026,7 36 60 0,0
18.09.2019 10:00:00 10,7 6,1 14,2 10,7 11,5 14,7 11 6 19 10 W 1026,6 30 60 0,0
18.09.2019 09:00:00 9,0 6,2 10,7 9,0 11,5 14,7 11 6 18 10 W 1026,1 29 59 0,0
18.09.2019 08:00:00 7,2 5,7 6,0 8,5 11,7 14,8 8 4 19 10 W 1025,6 27 0 0,0
18.09.2019 07:00:00 7,1 5,8 5,9 8,4 11,9 14,8 6 4 15 8 W 1025,2 30 0 0,0
18.09.2019 06:00:00 6,8 5,3 4,7 8,6 12,2 14,8 9 5 14 8 W 1025,0 28 0 0,0
18.09.2019 05:00:00 6,3 4,8 4,0 9,0 12,5 14,8 9 5 23 13 NW 1024,7 27 0 0,0
18.09.2019 04:00:00 7,0 4,8 5,2 9,4 12,8 14,8 12 7 19 10 WNW 1024,3 30 0 0,0
18.09.2019 03:00:00 8,2 5,2 6,7 9,7 13,0 14,8 16 9 26 14 WNW 1024,2 30 0 0,0
18.09.2019 02:00:00 8,7 5,4 6,9 10,0 13,4 14,8 16 9 29 16 W 1024,2 32 0 0,0
18.09.2019 01:00:00 8,7 5,2 6,6 10,4 13,7 14,8 15 8 23 13 W 1023,8 36 0 0,0
18.09.2019 00:00:00 9,2 5,1 7,2 10,9 14,1 14,8 16 8 26 14 W 1023,4 41 0 0,0
17.09.2019 23:00:00 9,5 4,8 7,3 11,6 14,5 14,8 13 7 23 13 WNW 1023,0 47 0 0,0
17.09.2019 22:00:00 9,8 4,4 7,9 12,5 14,9 14,8 17 9 31 17 WNW 1022,4 54 0 0,0
17.09.2019 21:00:00 10,7 5,4 9,1 13,4 15,2 14,8 16 9 29 16 NW 1021,7 43 0 0,0
17.09.2019 20:00:00 12,0 6,9 11,1 14,2 15,5 14,8 16 8 37 20 NW 1020,6 42 0 0,0
17.09.2019 19:00:00 13,0 7,1 12,4 15,0 15,7 14,8 24 13 45 25 WNW 1019,6 44 1 0,0
17.09.2019 18:00:00 13,4 7,1 13,2 16,0 15,8 14,9 30 16 49 26 NW 1019,3 46 33 0,0
17.09.2019 17:00:00 13,8 9,3 15,0 15,7 15,9 14,9 18 10 35 19 WNW 1018,8 53 9 0,1
17.09.2019 16:00:00 12,4 9,2 11,8 16,8 15,9 14,9 21 11 46 25 NW 1019,0 21 0 0,0
17.09.2019 15:00:00 15,0 7,3 15,7 18,4 15,6 14,9 28 15 50 27 W 1018,3 48 21 0,0
17.09.2019 14:00:00 16,1 7,9 19,6 17,7 15,2 14,9 23 13 45 25 W 1018,6 40 34 0,0
17.09.2019 13:00:00 14,4 7,0 15,9 17,3 14,8 14,9 23 13 40 22 W 1019,2 48 33 0,0
17.09.2019 12:00:00 14,3 7,8 16,8 16,5 14,3 14,9 22 12 34 19 W 1019,4 45 46 0,0
17.09.2019 11:00:00 13,5 8,1 16,3 14,9 13,9 14,9 22 12 35 19 W 1019,5 38 51 0,0
17.09.2019 10:00:00 12,1 9,0 13,4 13,4 13,8 14,9 21 11 29 15 WNW 1019,8 29 27 0,0
17.09.2019 09:00:00 11,2 9,5 11,3 12,4 13,8 14,9 6 4 10 5 W 1019,6 26 0 0,0
17.09.2019 08:00:00 10,2 9,4 9,8 12,0 13,9 14,9 4 2 12 6 SSW 1019,5 12 0 0,0
17.09.2019 07:00:00 10,1 9,1 9,1 12,1 14,1 14,9 6 4 18 10 W 1019,7 16 0 0,0
17.09.2019 06:00:00 10,5 9,8 10,2 12,3 14,2 14,9 6 3 9 5 WNW 1019,6 11 0 0,0
17.09.2019 05:00:00 10,3 10,0 10,0 12,3 14,3 14,9 5 3 8 5 SW 1019,5 7 0 0,0
17.09.2019 04:00:00 9,9 9,6 9,0 12,5 14,5 14,9 4 2 7 4 SSW 1019,7 4,1 0 0,0
17.09.2019 03:00:00 10,9 10,4 10,2 12,9 14,6 14,9 4 2 8 4 WSW 1020,0 8 0 0,0
17.09.2019 02:00:00 10,9 10,5 10,7 12,8 14,8 14,9 5 3 8 5 WSW 1020,3 8 0 0,0
17.09.2019 01:00:00 10,9 10,5 10,6 12,7 15,0 14,9 7 4 12 6 W 1020,3 12 0 0,0
17.09.2019 00:00:00 10,2 10,1 7,7 13,0 15,3 14,9 6 4 9 5 W 1020,5 11 0 0,1
16.09.2019 23:00:00 10,7 10,1 7,7 13,9 15,6 14,9 2 1 11 6 N 1020,2 11 0 0,0

tt = temperature
td = dewpoint
tt 5cm = temperature 5cm
tt -5cm = temperature -5cm
tt -20cm = temperature -20cm
tt -100cm = temperature -100cm
ff = wind speed
fx = gusts
dd = wind direction
ppp = reduced air pressure
vv = visibility
sd = sunshine duration
rr = precipitation

Next stations